Theta_e
320 322 326 326 327 326 322 321 323 324 322 320 319 319 317 318 320 323 323 324 324 324 324 325 324 324 324 325 325 325 325 325 326 327 326 325 324 325 326 326 325 325 325 324 323 322 321 321 321 321 321 321 320 319 320 320 319 319 319 319 318 318 319
325 323 324 325 324 321 320 324 325 325 323 321 321 323 321 320 321 323 324 324 324 324 323 324 325 325 325 326 327 327 325 325 325 327 327 326 325 325 325 326 324 324 325 324 323 322 321 321 320 320 319 317 317 317 320 320 319 320 320 319 318 317 317
324 319 317 319 317 316 321 325 325 325 323 320 322 324 323 322 320 321 324 325 324 324 324 324 324 325 326 326 327 328 327 325 324 325 326 326 326 325 325 325 323 323 325 324 323 322 321 320 318 315 313 313 315 317 318 318 319 319 319 317 316 316 315
316 313 311 311 310 311 319 324 324 322 321 320 320 323 324 322 319 319 322 325 324 324 325 325 323 324 325 325 326 326 327 327 325 324 325 325 325 326 326 325 323 323 324 324 323 322 321 318 314 312 313 314 316 317 316 316 316 316 316 315 313 312 311
311 311 309 308 308 308 314 319 319 318 321 321 320 321 322 320 318 319 321 323 324 325 325 323 321 322 324 325 325 324 324 325 324 323 323 325 325 325 325 325 323 323 324 323 322 322 320 318 315 312 313 315 316 316 316 316 315 314 314 313 311 309 308
312 312 311 312 312 312 314 316 317 319 321 321 319 318 319 318 319 321 321 321 322 323 323 321 320 322 324 323 323 322 322 322 323 323 324 325 324 324 323 323 323 321 321 322 321 322 321 318 316 313 312 314 315 314 314 314 314 313 312 311 310 309 308
313 313 315 318 317 316 318 319 321 322 321 321 320 319 320 321 320 320 320 319 320 321 322 322 322 324 323 321 321 320 320 321 322 324 324 324 323 322 322 321 321 318 317 319 320 321 320 318 316 314 312 312 312 311 311 311 311 310 310 309 309 309 309
315 315 317 320 319 318 319 321 323 323 322 323 322 320 322 323 321 320 319 318 319 321 322 323 324 325 324 322 322 321 322 323 323 323 322 321 319 320 320 319 318 316 315 317 319 319 320 318 316 314 312 311 311 310 309 309 308 308 309 309 309 309 309
315 316 316 317 317 316 319 322 323 323 323 324 322 319 321 323 322 320 317 316 320 322 323 323 323 323 323 323 322 322 323 324 323 322 320 317 316 316 317 317 317 316 315 316 318 317 317 317 315 313 313 312 312 310 308 308 308 309 309 309 309 308 309
316 317 317 315 314 315 318 321 322 323 323 323 322 318 318 319 319 317 317 318 320 322 322 323 322 322 321 321 321 322 323 323 323 322 318 316 315 315 315 316 315 314 314 315 316 315 314 314 313 313 313 313 312 310 308 308 308 308 308 308 308 308 308
319 319 319 315 313 314 316 318 320 321 322 321 320 316 313 314 315 315 318 319 320 322 322 322 322 321 319 318 318 318 319 320 320 319 317 315 314 313 312 312 312 312 313 315 315 315 314 313 313 314 315 313 311 310 310 310 309 309 308 308 308 309 309
321 321 319 315 313 313 314 316 316 317 319 317 315 314 312 313 313 314 317 319 319 319 320 321 321 320 317 316 315 314 313 312 312 312 312 311 310 310 309 309 310 312 313 315 315 314 314 314 314 316 316 314 313 312 312 311 310 309 308 309 309 309 309
322 322 320 317 314 311 311 312 312 311 313 313 311 311 311 310 309 308 312 316 317 316 317 317 318 316 314 313 311 308 307 306 306 308 310 311 311 311 311 309 309 311 312 314 314 314 315 315 315 315 316 316 315 314 314 313 312 311 311 311 310 309 308
322 322 320 318 312 308 309 311 310 308 309 310 308 309 309 309 308 306 307 311 314 314 313 312 312 311 309 308 306 306 306 307 307 309 311 312 312 313 314 313 311 311 312 313 313 314 314 314 314 315 315 316 315 315 315 315 315 314 313 312 309 308 308
322 321 321 318 310 309 312 314 313 309 307 307 308 310 311 309 309 308 307 308 309 310 310 309 309 307 307 307 308 309 311 311 311 313 313 313 313 314 314 314 314 313 313 313 313 314 314 314 315 315 315 316 315 315 315 316 315 314 313 312 309 309 309
322 322 321 316 310 311 316 317 313 309 306 306 308 312 312 310 310 311 310 309 308 308 309 310 309 308 310 312 312 313 313 313 314 315 314 313 312 312 313 312 312 313 313 314 314 314 315 315 315 315 316 315 315 315 315 315 315 315 314 313 311 310 310
323 322 319 313 310 312 316 317 313 308 306 305 308 312 313 312 312 312 312 311 310 309 311 311 309 309 312 314 313 314 313 313 313 313 312 311 310 311 311 310 310 312 313 314 314 314 314 315 315 315 316 315 315 315 315 315 314 314 314 313 312 311 311
323 322 318 312 311 313 317 318 312 306 305 306 310 315 314 313 313 314 313 313 312 312 312 311 309 309 312 313 313 313 312 312 312 311 311 311 311 310 310 310 310 310 311 313 314 314 314 315 315 315 315 315 315 314 314 314 314 314 314 313 313 312 312
323 322 320 317 317 318 320 318 309 305 307 309 313 316 314 313 315 315 315 314 314 313 312 311 310 309 309 311 312 312 312 311 311 311 311 311 311 311 311 310 310 309 310 311 312 313 313 314 315 315 315 315 314 314 314 314 315 315 315 315 314 313 314
322 322 321 322 322 321 322 320 312 309 312 314 315 316 315 314 315 315 315 315 315 315 312 311 311 310 308 309 310 311 311 312 311 312 313 313 313 312 312 311 311 312 312 312 312 313 314 314 314 315 315 316 315 314 314 315 315 315 315 315 315 315 314
323 322 322 322 323 322 322 322 318 316 317 317 316 316 315 314 314 315 315 315 316 315 313 311 311 310 309 308 308 309 310 311 311 311 313 314 314 313 313 314 314 315 315 315 315 315 316 315 315 315 315 316 315 315 315 314 314 315 315 315 315 315 315
324 324 323 323 323 322 322 322 322 320 319 319 319 318 317 316 315 315 314 314 314 314 312 312 311 309 309 309 309 309 310 311 310 311 312 313 313 313 313 315 316 316 316 316 316 316 316 317 316 316 315 315 315 315 315 315 314 315 315 315 315 315 314
325 325 324 324 323 323 322 322 322 320 319 320 320 319 319 318 317 316 315 314 314 314 313 313 312 312 311 310 310 310 309 310 310 310 310 311 312 313 313 315 316 316 316 316 316 316 317 317 317 317 316 316 316 316 316 315 315 315 315 315 315 315 314
324 324 324 323 323 323 323 322 321 320 319 320 320 320 319 319 318 318 317 317 315 315 315 314 314 314 313 313 312 311 310 310 310 310 311 312 313 314 315 316 316 316 317 316 316 317 317 316 316 316 316 316 316 316 316 315 315 315 315 315 315 314 315
323 323 323 323 323 323 323 322 321 321 320 319 320 320 320 320 320 319 319 318 318 317 317 315 315 315 315 314 314 313 313 313 312 311 312 314 315 316 316 316 316 317 317 316 316 316 316 316 316 316 315 315 315 315 315 314 315 315 315 315 315 315 315
320 321 322 321 322 322 322 322 322 321 321 321 320 320 320 320 320 319 319 319 319 319 318 317 316 316 315 315 315 315 315 315 315 314 314 315 316 316 317 317 317 317 317 316 316 316 315 315 315 315 315 314 314 315 315 314 314 315 315 315 315 315 315
316 318 319 319 320 320 320 320 320 321 321 321 321 321 321 321 321 320 319 318 319 319 319 319 318 317 316 316 316 317 316 316 316 316 316 316 316 317 317 318 318 317 316 316 315 315 315 314 315 314 314 314 313 312 312 313 314 315 315 315 315 315 315
314 315 316 316 317 318 319 319 319 320 320 320 320 319 320 321 321 321 320 319 319 319 319 319 318 318 318 317 317 317 318 318 318 317 317 318 318 318 318 319 318 317 316 315 315 315 314 314 313 313 312 311 309 308 307 308 309 311 312 313 315 315 315
315 315 315 316 316 317 317 318 319 319 319 319 319 318 318 318 319 320 320 320 320 320 320 320 319 319 319 319 318 318 318 318 318 318 318 318 317 317 318 318 318 316 316 315 315 314 314 313 311 311 310 309 307 305 304 304 304 305 307 309 311 312 314
312 313 314 315 315 315 316 316 317 318 318 318 318 317 318 318 318 318 318 319 319 320 320 321 320 320 320 320 320 319 318 317 317 318 318 317 316 317 318 318 317 316 315 315 314 313 312 312 311 311 309 307 305 304 303 303 303 303 304 306 307 309 310
307 309 309 311 312 312 313 314 315 316 317 317 317 316 316 315 315 315 315 316 318 319 319 319 320 319 319 320 319 319 319 318 317 316 318 318 317 317 317 318 317 317 316 315 314 313 313 313 313 311 308 305 303 303 303 303 303 303 303 304 305 306 307
303 304 305 307 308 309 309 310 311 312 312 313 313 314 314 314 314 315 315 316 317 318 319 318 318 318 317 318 318 318 318 318 318 317 317 317 317 317 317 317 317 317 316 315 314 312 312 313 313 309 304 303 303 303 303 303 303 302 302 303 303 304 304
300 300 301 302 303 304 304 304 304 305 306 307 308 309 311 312 313 314 314 315 316 317 318 318 317 316 316 316 317 317 317 317 317 317 316 316 317 316 315 315 315 315 315 315 314 313 313 315 314 308 302 302 303 303 303 303 302 303 303 303 303 303 303
300 300 300 299 299 300 300 300 300 300 301 301 303 304 305 306 308 310 311 312 313 313 314 315 315 315 315 315 315 315 316 316 316 316 316 316 317 317 315 315 315 315 315 315 314 313 314 314 311 305 302 303 303 303 303 303 303 303 304 304 304 304 303
299 300 299 299 299 299 298 298 299 299 299 299 300 300 301 302 303 304 306 308 310 311 311 311 312 312 313 313 312 313 314 315 315 315 316 316 316 316 316 316 315 315 315 314 313 313 312 309 307 306 305 304 302 302 302 303 304 305 306 307 306 305 303
298 298 298 298 298 298 298 298 298 298 299 300 301 301 302 302 303 304 306 307 309 310 310 310 311 311 310 310 311 313 313 314 315 316 316 316 315 315 315 315 314 313 313 312 310 307 307 307 309 310 307 304 302 302 302 304 306 307 308 307 305 302 301
298 298 298 299 299 298 298 298 298 298 298 299 300 301 302 302 303 303 304 305 306 307 307 309 311 313 312 311 311 312 313 313 314 315 316 316 315 314 314 314 313 312 311 309 305 304 306 309 311 310 307 306 306 304 303 305 306 306 305 303 302 300 300
Wind_Speed
14 14 13 11 9 7 7 9 7 5 5 4 5 5 6 8 8 9 9 7 6 5 6 7 7 8 8 8 9 9 10 11 10 10 10 12 14 14 14 12 8 7 13 19 19 18 20 19 15 13 13 10 7 6 7 7 7 6 5 5 5 6 8
12 12 12 10 9 9 10 11 8 6 4 5 7 6 5 6 7 9 7 5 5 7 8 7 8 9 9 9 9 8 9 8 8 9 9 10 12 14 14 13 10 10 14 18 18 16 17 18 14 11 11 9 9 10 11 10 6 4 4 6 7 6 7
11 10 10 9 10 12 12 12 11 7 4 5 7 6 5 4 6 9 9 6 5 7 9 7 9 11 10 9 9 9 8 7 7 8 8 9 10 12 14 14 13 15 18 19 19 16 14 13 12 11 11 13 16 16 13 10 7 4 3 4 4 4 5
10 10 10 9 10 12 13 12 11 8 5 6 7 7 5 2 3 9 10 9 7 9 11 8 7 10 11 9 10 11 9 8 8 8 9 9 9 12 14 13 13 16 18 19 20 18 15 14 16 16 16 16 17 16 14 11 7 4 2 2 4 5 5
11 10 10 11 10 11 12 11 9 7 6 6 7 8 7 4 4 7 8 9 9 10 11 9 6 9 12 10 11 11 10 10 9 9 9 8 9 11 13 12 11 13 14 15 19 19 15 15 18 19 18 16 14 14 15 12 8 5 3 2 5 7 7
11 11 11 11 10 10 10 9 8 5 5 5 5 6 6 7 8 7 6 7 9 9 8 7 7 10 10 9 10 10 10 10 10 10 10 11 13 15 15 13 13 12 10 12 18 18 16 16 18 19 19 17 16 17 16 13 10 7 2 4 7 9 9
12 11 11 10 9 8 8 8 8 5 5 5 3 6 8 10 10 9 7 6 7 8 6 6 9 10 8 9 9 9 10 12 13 14 16 16 16 16 15 14 14 13 10 10 15 18 19 20 19 18 19 20 20 20 18 14 10 6 2 2 6 9 9
12 12 12 10 8 8 9 9 8 6 7 7 4 6 10 9 9 8 6 6 8 10 11 10 10 10 10 11 11 12 14 16 18 19 19 17 16 15 14 14 15 14 12 13 15 16 18 21 18 15 18 23 22 19 16 14 9 5 3 1 3 8 9
13 11 11 10 8 9 10 10 8 8 9 8 5 5 9 9 9 7 5 8 13 13 12 12 12 11 12 12 13 15 17 17 19 20 19 16 16 16 16 16 15 15 14 14 15 15 16 19 17 14 15 19 22 20 17 14 11 7 3 0 3 6 8
12 9 8 8 7 8 9 8 8 9 8 7 5 5 8 9 8 8 7 11 16 14 12 13 12 10 11 13 14 15 17 16 17 18 18 16 16 16 17 16 16 15 14 15 17 20 21 20 17 14 11 15 22 23 20 17 13 10 6 1 3 5 7
10 8 7 7 6 7 7 6 7 8 7 6 5 4 7 9 8 8 10 13 16 15 13 14 12 10 12 14 14 14 15 16 17 18 17 16 16 15 15 16 17 16 15 17 20 19 19 18 15 10 9 15 21 19 17 17 15 11 8 5 2 3 4
10 7 7 6 5 6 6 5 4 6 6 5 4 5 7 8 8 8 10 13 14 14 14 14 12 11 13 14 12 12 13 15 17 19 18 16 15 13 13 16 18 18 16 16 17 16 15 16 13 8 8 14 17 14 12 14 15 13 9 5 2 1 3
10 7 7 6 5 6 6 4 2 3 4 2 3 6 6 6 6 6 9 12 13 13 13 13 11 12 13 13 11 11 12 14 17 18 17 15 14 14 16 16 17 18 16 15 16 15 14 12 9 6 7 11 12 11 10 9 11 13 9 4 3 2 1
9 8 7 5 6 7 6 3 1 1 2 2 4 6 5 5 5 5 8 11 13 13 12 11 11 12 13 12 12 13 15 16 17 17 15 15 17 18 18 18 17 17 17 16 16 14 12 9 6 5 6 9 11 11 8 6 7 10 9 3 2 4 4
9 8 7 6 7 8 5 2 1 2 2 4 7 7 6 5 5 6 8 10 11 12 12 12 13 13 14 14 15 17 18 18 18 17 15 16 18 18 17 16 17 18 18 16 15 13 10 8 7 6 7 8 9 8 6 6 6 7 7 3 3 6 5
8 8 7 8 9 8 4 2 1 1 2 6 8 8 6 5 7 7 6 7 9 12 13 14 14 15 17 16 16 17 17 18 18 17 15 15 16 16 14 13 14 16 16 15 14 12 8 7 7 7 7 6 6 6 4 4 5 4 4 3 4 7 5
8 9 8 9 10 7 3 2 2 2 3 6 9 9 7 7 8 6 4 6 9 12 14 13 14 17 19 17 15 15 15 17 18 16 14 13 13 14 12 11 10 12 13 12 13 13 9 9 10 9 8 6 4 4 4 5 5 4 4 4 4 4 4
8 9 9 9 9 7 4 3 4 4 6 8 10 10 8 8 9 7 5 6 8 11 12 11 12 16 19 17 16 15 14 15 15 14 12 11 10 10 11 10 10 10 12 12 13 14 11 10 10 8 8 8 6 6 6 6 6 4 4 5 5 4 4
8 8 8 8 8 6 4 4 6 7 8 9 10 9 8 9 11 10 7 7 7 8 9 9 10 14 17 17 16 15 14 14 13 12 10 10 9 9 8 9 9 9 11 11 12 13 12 12 12 8 8 9 7 7 7 7 7 5 3 4 6 6 5
10 8 7 7 6 4 3 5 8 9 8 9 9 8 8 9 11 12 11 10 9 8 8 8 10 12 15 16 16 15 14 14 14 13 11 10 9 8 7 8 8 9 10 11 12 13 13 12 13 11 8 8 8 8 8 9 10 8 5 5 5 6 5
12 10 10 10 8 6 4 5 8 10 9 8 9 9 7 8 11 11 11 11 10 10 8 8 10 11 13 14 15 15 15 14 14 15 14 12 11 10 9 9 9 9 9 11 12 12 12 11 13 14 12 9 8 9 10 11 11 10 9 7 6 6 7
13 13 13 13 12 10 9 8 8 10 12 9 10 11 9 8 10 10 9 10 10 9 8 7 9 10 11 13 14 14 15 14 15 16 16 16 14 13 13 12 11 11 10 11 11 11 12 12 13 15 15 13 11 11 12 12 11 11 11 9 9 9 8
11 13 13 14 14 12 11 11 9 11 14 10 8 11 10 8 9 10 9 10 10 10 9 9 9 9 10 12 13 14 16 16 16 17 17 17 17 17 16 15 14 13 13 13 13 12 12 13 13 15 16 16 15 14 13 12 12 12 12 11 12 11 11
7 9 10 10 11 11 11 11 10 12 15 14 10 11 12 11 12 11 10 10 11 12 12 12 12 12 12 12 13 15 17 18 18 19 19 19 20 19 19 18 17 16 16 15 15 14 14 13 14 15 15 16 16 16 16 14 13 13 13 13 13 14 14
6 8 8 7 7 8 9 10 11 12 14 17 16 14 14 14 15 16 14 13 13 14 14 14 15 16 15 15 16 17 19 20 20 20 21 21 21 22 21 20 20 20 19 18 17 16 16 16 16 17 17 17 18 18 18 18 17 17 16 15 15 15 15
6 6 5 4 5 5 4 5 8 9 11 14 16 17 17 17 17 18 18 17 17 18 17 16 17 18 19 19 20 21 22 23 22 21 22 22 23 24 24 23 23 23 21 20 19 18 18 19 20 20 19 18 18 19 20 19 19 18 18 18 17 17 17
10 9 7 5 2 1 2 3 4 5 6 8 10 13 15 17 18 20 20 20 20 21 21 20 19 20 21 22 23 24 24 26 26 25 25 24 24 26 27 26 26 24 22 21 21 21 21 21 22 22 21 20 20 20 20 19 19 18 18 19 19 19 19
10 9 9 8 6 4 2 2 3 4 6 7 9 10 11 13 15 17 20 22 22 23 23 23 23 23 24 25 26 26 27 28 29 29 29 28 27 28 29 28 26 25 24 23 23 23 23 23 22 23 23 22 20 19 18 17 17 17 17 18 19 20 20
7 6 4 3 3 3 2 2 2 3 4 6 8 10 11 12 13 13 15 18 21 24 25 25 25 26 27 28 28 29 30 32 32 33 33 32 31 30 30 28 28 28 26 25 24 24 24 23 22 24 24 22 19 17 16 15 15 15 16 17 17 18 18
3 4 4 5 6 6 6 6 6 7 7 6 7 10 12 13 14 14 14 15 17 20 22 23 24 25 27 29 29 30 32 33 34 35 35 35 34 33 31 30 30 30 26 24 23 23 24 25 25 25 26 23 19 16 14 14 13 13 13 14 14 14 14
3 4 5 7 8 10 10 11 11 11 11 11 12 13 15 16 16 17 17 17 17 18 19 19 19 21 24 26 28 30 31 32 33 35 36 36 35 34 33 32 33 32 28 26 26 24 26 28 28 26 25 23 19 16 14 13 14 13 13 12 12 11 11
7 7 8 10 11 12 12 13 14 14 15 16 16 16 17 17 18 18 19 19 20 20 20 19 18 19 20 22 24 26 27 29 31 33 34 35 35 35 34 33 33 33 32 33 33 30 29 30 27 24 23 21 18 15 15 15 14 13 13 12 10 9 9
11 11 12 13 14 15 16 17 18 18 18 19 19 20 19 19 19 19 19 21 22 23 23 22 21 21 21 21 22 23 24 25 27 29 31 32 34 36 36 37 37 36 35 37 35 30 28 29 26 23 22 19 17 16 16 15 14 12 11 10 9 10 11
16 16 17 17 18 19 20 21 22 22 22 22 22 22 23 23 24 23 22 23 24 26 26 25 25 24 24 24 24 24 24 25 25 27 28 30 33 36 37 39 40 38 36 36 32 27 26 27 26 24 21 18 16 16 15 14 12 11 11 11 11 13 14
18 19 20 21 22 23 23 23 23 23 23 23 23 23 23 24 25 25 24 24 25 28 28 27 26 27 27 28 27 25 24 24 24 25 26 28 31 34 36 36 35 32 31 30 26 24 25 25 25 24 20 17 16 15 14 13 13 12 13 13 14 14 13
18 19 20 21 22 24 25 25 25 24 23 23 22 22 21 21 22 24 24 24 25 27 28 26 25 26 27 28 26 23 23 23 23 24 26 27 29 31 32 30 26 24 24 23 20 20 22 24 25 23 20 17 15 14 13 14 14 14 14 14 14 12 11
17 18 18 19 20 22 23 24 25 24 24 23 23 22 21 19 20 22 23 24 25 26 28 28 26 25 25 26 25 23 22 23 24 24 24 26 27 28 27 25 23 24 23 21 19 20 23 24 23 21 19 17 15 14 14 14 15 15 15 14 13 12 11
Wind_Direction
146 142 143 150 156 153 113 99 105 101 80 80 98 100 101 111 118 118 118 117 118 126 151 174 176 177 188 193 198 198 198 200 190 187 193 195 195 189 183 185 182 169 169 164 158 152 142 134 133 136 139 145 138 125 131 121 96 91 92 70 60 63 67
157 157 162 168 165 157 132 123 137 140 119 106 108 105 99 114 128 128 135 142 140 141 139 152 169 166 172 185 193 194 193 191 179 180 188 186 188 191 189 187 181 172 169 166 163 163 155 146 147 152 152 142 116 116 127 121 112 133 111 71 57 53 53
174 171 173 176 163 153 144 147 164 173 173 145 133 135 131 126 132 142 160 161 139 151 150 156 178 180 180 183 192 201 195 186 180 179 182 176 171 182 190 188 181 172 166 165 166 168 165 158 156 156 151 134 118 119 127 126 133 148 110 61 31 15 25
170 163 161 166 165 161 160 167 182 193 190 170 160 160 162 167 131 142 164 168 143 150 165 178 195 195 195 195 198 198 189 187 188 182 182 176 161 168 177 178 177 172 166 165 166 168 163 151 144 140 138 132 126 128 130 130 136 135 106 27 6 21 47
160 151 151 156 157 159 168 177 190 193 183 180 181 181 188 197 162 143 157 170 164 160 175 199 204 187 188 192 191 183 180 185 182 179 179 165 147 153 161 160 162 167 168 166 165 168 170 153 138 136 139 138 138 143 142 143 146 133 111 5 6 27 47
157 151 149 145 138 143 157 166 173 182 193 201 187 173 172 166 165 168 162 169 181 180 189 204 187 175 175 172 170 171 175 173 165 162 157 142 135 137 142 144 144 146 154 168 169 170 174 162 138 131 139 143 143 145 146 150 147 132 103 333 351 19 36
157 152 149 140 135 143 147 150 163 182 196 196 167 139 150 157 166 182 182 172 176 171 159 153 159 166 167 158 157 160 158 151 147 145 143 139 136 134 138 141 139 134 132 159 171 168 171 167 145 131 140 147 147 144 144 151 156 146 146 314 349 17 33
157 151 150 151 151 150 147 151 170 191 190 192 193 158 159 167 175 186 193 169 150 139 127 127 142 152 154 151 150 150 148 148 149 148 145 144 142 143 150 150 148 145 134 143 160 164 172 172 156 138 142 147 151 153 151 155 160 148 141 175 12 17 22
161 153 152 158 157 149 149 160 181 198 199 206 223 195 180 185 189 196 196 155 143 139 134 139 143 143 148 149 147 149 150 151 154 153 150 149 147 152 160 162 163 156 138 138 144 142 152 161 157 154 156 155 158 160 155 151 150 145 146 191 49 32 19
165 157 154 159 159 155 158 174 197 208 215 223 236 219 197 195 193 190 177 153 147 146 145 150 154 153 154 151 150 151 151 152 156 157 158 157 156 160 165 169 168 155 137 133 134 131 135 144 151 158 166 167 165 160 151 143 144 153 166 182 43 48 27
168 159 156 155 159 166 170 184 210 222 228 239 243 203 176 177 180 178 169 157 156 159 159 161 169 173 162 153 153 153 149 151 155 157 161 164 165 167 168 168 164 150 138 136 138 139 141 145 151 151 152 166 170 167 158 148 143 150 161 156 82 44 22
173 165 157 154 162 174 179 187 220 235 240 252 234 188 172 173 179 180 173 164 163 169 173 177 182 178 165 159 158 153 148 152 154 153 155 157 158 155 151 159 162 154 146 144 146 151 154 155 155 142 140 165 177 188 190 172 156 152 159 169 183 348 360
182 173 158 154 170 180 185 191 219 249 250 248 190 179 175 172 173 171 167 168 169 172 179 184 183 175 168 166 163 150 144 148 151 150 151 149 144 134 127 136 152 158 156 154 156 159 160 160 158 143 139 148 156 170 182 177 164 161 165 186 190 159 120
183 176 164 161 175 175 175 169 125 279 254 189 163 160 154 152 154 150 153 164 172 177 180 175 168 164 161 157 149 139 136 140 144 146 147 145 141 135 127 125 134 147 155 158 158 157 153 144 129 127 143 139 138 148 151 137 145 157 160 165 159 137 131
178 174 170 171 170 163 155 135 127 273 236 171 156 150 151 150 144 142 146 156 168 174 167 157 154 150 144 140 137 136 137 138 139 140 142 143 142 140 136 132 132 139 146 149 147 147 149 141 129 130 143 146 147 152 147 129 125 140 146 140 157 150 122
172 173 177 179 172 164 154 140 178 242 198 172 162 155 157 150 139 140 141 147 158 160 154 153 154 145 138 139 139 141 145 144 142 145 147 148 149 149 146 141 139 143 147 144 142 146 145 135 138 148 156 156 145 143 163 163 137 125 132 136 164 165 130
170 177 185 181 174 174 171 163 191 198 174 173 164 157 158 147 144 154 155 146 150 154 158 164 161 150 146 149 152 155 157 155 156 160 160 157 157 157 156 151 147 153 160 158 156 162 160 145 148 155 167 177 157 150 180 180 154 134 136 148 157 153 130
169 175 188 188 184 190 196 184 186 174 167 165 157 159 168 158 159 180 184 163 160 163 170 176 166 159 159 160 164 168 168 168 170 170 170 171 169 169 170 169 166 168 175 176 173 177 179 172 168 164 168 179 174 169 179 171 156 146 144 169 180 155 146
174 174 185 191 191 196 192 172 171 169 167 161 155 170 190 178 175 187 189 186 191 187 185 183 170 168 173 176 179 182 180 179 178 176 180 189 192 192 192 190 187 185 189 191 191 196 199 189 184 183 181 181 174 172 182 179 170 165 149 174 188 174 173
180 181 177 179 186 202 198 169 170 169 161 156 164 191 214 199 191 193 191 196 214 218 209 197 188 183 183 186 192 195 194 191 186 184 190 202 211 212 213 213 209 203 201 202 203 209 214 202 192 192 191 185 181 182 189 190 191 198 200 187 193 200 214
185 190 185 187 196 206 208 195 184 173 166 174 191 210 225 211 203 206 204 206 219 233 236 222 213 210 204 201 203 205 205 203 198 196 198 207 219 223 221 225 230 228 218 211 210 213 214 207 200 201 202 198 197 200 202 201 202 207 206 200 207 227 247
190 198 199 204 209 206 202 210 207 187 184 199 214 222 236 226 211 214 217 216 226 241 249 243 233 229 224 220 221 220 217 214 210 209 210 213 222 231 234 236 239 242 235 226 224 221 215 212 208 208 213 217 220 222 220 219 217 213 214 223 227 233 250
192 199 202 208 212 210 209 213 211 193 192 206 217 220 231 231 215 219 224 223 231 244 252 256 253 247 239 233 231 230 229 226 222 224 226 227 230 236 242 244 242 241 239 234 232 230 226 224 221 217 220 225 228 231 232 234 236 234 237 241 237 238 249
183 189 194 204 210 214 214 213 207 194 195 205 209 208 215 218 215 221 228 226 229 238 247 253 256 256 253 247 242 239 237 234 233 235 237 238 240 241 241 243 242 238 237 236 236 237 239 240 238 234 232 233 233 233 237 243 248 251 252 247 243 249 258
171 179 189 200 207 211 212 214 216 210 206 210 213 215 219 223 221 220 222 222 226 231 237 241 245 248 248 246 248 250 248 243 242 242 243 243 243 242 241 242 242 241 240 238 236 240 244 246 245 242 240 242 242 240 243 247 251 254 256 254 252 258 263
134 153 171 190 202 208 214 224 229 227 222 222 226 230 233 235 234 231 228 227 228 229 229 232 238 240 239 239 244 250 252 252 252 253 252 250 247 244 244 244 243 242 242 240 238 241 247 248 245 242 242 244 245 245 245 246 247 249 251 252 252 256 261
104 109 104 104 111 34 359 332 296 273 265 262 255 249 247 246 244 241 240 239 237 234 231 233 238 238 236 237 239 243 249 253 256 258 257 255 253 250 248 247 247 242 240 243 245 246 250 249 244 240 241 243 244 245 247 246 246 246 247 250 252 256 260
103 106 105 108 112 101 62 342 330 319 309 304 291 275 266 261 256 251 249 249 247 244 239 238 240 241 241 240 238 238 243 248 250 253 253 250 247 246 244 244 242 238 242 251 254 253 252 249 241 237 238 241 244 246 248 249 247 247 249 251 253 255 258
120 120 125 141 153 159 205 241 250 270 293 305 300 291 283 275 270 264 259 256 254 253 249 246 246 246 246 246 245 245 247 250 251 251 251 251 251 251 248 243 237 239 248 255 255 252 249 243 238 238 238 240 244 245 243 243 243 244 245 247 249 251 255
154 160 180 206 216 223 237 242 244 252 259 268 282 287 288 287 285 279 273 269 265 261 258 256 253 252 251 251 252 253 254 255 254 253 253 255 257 256 251 244 240 243 248 250 248 247 247 246 246 245 242 241 241 237 232 235 239 241 243 245 249 252 255
266 243 238 235 232 235 240 244 248 255 260 264 270 274 278 282 285 284 282 280 277 274 271 267 262 257 255 254 255 256 257 258 256 253 251 253 254 253 248 244 243 244 246 247 249 252 256 255 251 244 238 235 234 232 232 236 240 242 245 249 253 256 260
280 273 270 267 264 263 262 260 259 259 261 264 267 268 269 272 275 280 281 281 281 280 277 273 269 265 263 260 257 256 257 258 257 252 250 250 251 249 247 244 243 244 247 253 259 261 256 249 242 235 230 226 225 228 233 236 239 243 247 248 251 258 267
287 281 275 273 273 273 273 273 272 269 267 266 265 263 263 264 266 269 272 274 276 278 277 275 274 274 274 270 264 259 256 257 257 255 253 252 250 247 246 245 245 248 253 258 262 258 244 235 233 231 223 218 219 225 231 233 235 238 241 242 249 259 268
283 281 279 278 276 274 274 274 274 273 272 271 270 268 266 265 264 265 267 269 271 273 273 273 275 275 275 274 270 263 258 257 258 258 256 255 253 251 250 249 250 254 256 254 249 242 233 229 230 226 219 217 221 224 227 230 229 230 235 242 251 260 270
280 281 281 281 280 279 277 276 275 274 273 271 271 271 271 271 270 269 268 267 268 270 271 272 274 273 271 272 271 265 259 257 257 257 256 254 255 255 254 254 255 256 253 242 230 226 228 224 218 216 216 218 220 219 222 228 231 233 236 241 251 263 274
282 282 281 280 279 278 277 275 274 273 272 271 271 271 273 274 274 273 270 268 268 270 272 272 272 270 269 270 268 261 257 258 259 258 256 256 257 256 254 253 248 237 226 216 207 210 216 210 206 210 216 218 219 220 224 231 236 238 240 246 256 267 268
286 286 287 286 283 280 279 278 278 277 275 273 272 273 275 277 277 277 277 275 272 272 274 273 269 264 265 268 267 262 258 260 261 260 257 257 258 256 250 242 226 209 200 197 196 200 203 200 200 207 213 216 219 224 229 234 239 242 246 252 255 254 246